EW4214 Weather Reports


Display with metric or nautical units.
time (UTC)temp
F
wind
direction
speed
MPH
gust
MPH
rain 1hr
in
rain 24hr
in
rain mn
in
humidity
%
barometer
mb
20260902204144 86 224 2.0 5.0 0.00 0.00 0.00 68 1007.5
20260902203142 86 228 2.0 3.0 0.00 0.00 0.00 68 1007.6
20260902202139 86 180 0.0 5.0 0.00 0.00 0.00 68 1007.6
20260902201137 86 233 1.0 4.0 0.00 0.00 0.00 68 1007.6
20260902200134 86 168 0.0 4.0 0.00 0.00 0.00 68 1007.5
20260902195134 86 250 2.0 4.0 0.00 0.00 0.00 67 1007.6
20260902194621 86 48 1.0 4.0 0.00 0.00 0.00 67 1007.6
20260902193133 86 259 0.0 3.0 0.00 0.00 0.00 67 1007.7
20260902192136 86 5 1.0 4.0 0.00 0.00 0.00 67 1007.8
20260902191134 86 81 0.0 4.0 0.00 0.00 0.00 67 1007.8
20260902190133 86 18 0.0 2.0 0.00 0.00 0.00 67 1008.0
20260902185611 86 106 0.0 2.0 0.00 0.00 0.00 66 1008.1
20260902184131 86 12 1.0 2.0 0.00 0.00 0.00 66 1008.0
20260902183131 86 13 0.0 4.0 0.00 0.00 0.00 66 1008.1
20260902182611 86 218 0.0 4.0 0.00 0.00 0.00 66 1008.2
20260902181131 86 29 2.0 4.0 0.00 0.00 0.00 66 1008.3
20260902180132 86 304 0.0 4.0 0.00 0.00 0.00 66 1008.4
20260902175132 86 180 0.0 3.0 0.00 0.00 0.00 66 1008.5
20260902174131 86 244 3.0 3.0 0.00 0.00 0.00 66 1008.6
20260902173130 87 215 2.0 3.0 0.00 0.00 0.00 65 1008.9
20260902172135 87 271 1.0 5.0 0.00 0.00 0.00 65 1008.9
20260902172055 87 284 1.0 5.0 0.00 0.00 0.00 65 1009.1
20260902170132 87 261 0.0 5.0 0.00 0.00 0.00 65 1009.2
20260902165133 87 282 1.0 6.0 0.00 0.00 0.00 65 1009.2
20260902164608 87 135 0.0 4.0 0.00 0.00 0.00 65 1009.2
20260902163617 87 243 1.0 4.0 0.00 0.00 0.00 65 1009.2
20260902162133 87 222 0.0 4.0 0.00 0.00 0.00 65 1009.1
20260902161131 87 228 2.0 5.0 0.00 0.00 0.00 64 1009.2
20260902160131 87 314 1.0 5.0 0.00 0.00 0.00 64 1009.1
20260902155621 87 353 2.0 5.0 0.00 0.00 0.00 64 1009.2
20260902154133 87 252 2.0 5.0 0.00 0.00 0.00 63 1009.1
20260902153131 87 248 3.0 4.0 0.00 0.00 0.00 63 1009.1
20260902152131 87 262 2.0 4.0 0.00 0.00 0.00 63 1009.1
20260902151131 87 289 0.0 4.0 0.00 0.00 0.00 63 1009.1
20260902151112 87 272 1.0 4.0 0.00 0.00 0.00 64 1009.1
20260902145137 87 214 2.0 6.0 0.00 0.00 0.00 64 1008.8
20260902145131 87 349 1.0 5.0 0.00 0.00 0.00 64 1008.9
20260902143134 87 241 2.0 7.0 0.00 0.00 0.00 64 1008.7
20260902142131 87 239 2.0 5.0 0.00 0.00 0.00 64 1008.5
20260902141645 87 310 2.0 6.0 0.00 0.00 0.00 64 1008.5
20260902140705 87 252 3.0 7.0 0.00 0.00 0.00 65 1008.3
20260902135131 87 241 2.0 4.0 0.00 0.00 0.00 66 1008.1
20260902134132 87 237 2.0 3.0 0.00 0.00 0.00 66 1007.8
20260902133623 87 313 0.0 5.0 0.00 0.00 0.00 67 1007.7
20260902132132 87 278 2.0 4.0 0.00 0.00 0.00 68 1007.5
20260902131624 87 273 0.0 4.0 0.00 0.00 0.00 68 1007.3
20260902130131 87 226 1.0 3.0 0.00 0.00 0.00 68 1007.2
20260902125614 87 219 1.0 4.0 0.00 0.00 0.00 69 1007.0
20260902124132 87 336 0.0 3.0 0.00 0.00 0.00 69 1007.1
20260902123138 87 269 0.0 3.0 0.00 0.00 0.00 69 1006.9
20260902122133 87 335 0.0 2.0 0.00 0.00 0.00 69 1006.7
20260902121626 87 283 0.0 3.0 0.00 0.00 0.00 69 1006.6
20260902120134 87 255 3.0 4.0 0.00 0.00 0.00 69 1006.4
20260902115308 87 154 0.0 2.0 0.00 0.00 0.00 69 1006.2
20260902114300 87 1 1.0 3.0 0.00 0.00 0.00 69 1005.9
20260902113258 87 258 1.0 2.0 0.00 0.00 0.00 69 1005.9
20260902112254 87 333 0.0 1.0 0.00 0.00 0.00 69 1005.8
20260902111250 87 269 0.0 2.0 0.00 0.00 0.00 68 1005.8
20260902110802 88 249 0.0 5.0 0.00 0.00 0.00 68 1005.8
20260902105804 88 228 3.0 4.0 0.00 0.00 0.00 68 1005.7
20260902104248 88 247 2.0 6.0 0.00 0.00 0.00 68 1005.5
20260902103759 87 133 0.0 5.0 0.00 0.00 0.00 68 1005.4
20260902102235 87 327 2.0 6.0 0.00 0.00 0.00 68 1005.6
20260902101234 88 330 2.0 4.0 0.00 0.00 0.00 68 1005.4
20260902100228 88 253 1.0 5.0 0.00 0.00 0.00 68 1005.4
20260902095739 88 356 0.0 4.0 0.00 0.00 0.00 68 1005.5
20260902094221 88 28 1.0 4.0 0.00 0.00 0.00 68 1005.5
20260902093731 88 349 2.0 5.0 0.00 0.00 0.00 68 1005.7
20260902092719 88 337 4.0 6.0 0.00 0.00 0.00 68 1005.6
20260902091721 88 327 0.0 6.0 0.00 0.00 0.00 68 1005.8
20260902090209 87 299 2.0 6.0 0.00 0.00 0.00 68 1005.6
20260902085208 87 234 4.0 5.0 0.00 0.00 0.00 69 1005.6
20260902084217 87 277 0.0 6.0 0.00 0.00 0.00 68 1006.1
20260902084201 87 268 3.0 6.0 0.00 0.00 0.00 68 1006.0
20260902082159 87 275 2.0 5.0 0.00 0.00 0.00 69 1006.1
20260902081159 88 300 2.0 5.0 0.00 0.00 0.00 69 1006.2
20260902080702 88 230 1.0 5.0 0.00 0.00 0.00 68 1006.3
20260902080438 87 293 2.0 7.0 0.00 0.00 0.00 68 1006.4
20260902074152 87 261 0.0 5.0 0.00 0.00 0.00 68 1006.6
20260902073149 87 5 1.0 7.0 0.00 0.00 0.00 69 1006.7
20260902072145 87 307 2.0 8.0 0.00 0.00 0.00 68 1006.9
20260902071142 87 268 4.0 9.0 0.00 0.00 0.00 69 1007.1
20260902070137 87 245 4.0 11.0 0.00 0.00 0.00 69 1007.3
20260902065638 87 310 4.0 10.0 0.00 0.00 0.00 69 1007.4
20260902064133 87 326 2.0 8.0 0.00 0.00 0.00 70 1007.7
20260902063132 87 247 2.0 6.0 0.00 0.00 0.00 70 1007.9
20260902062131 86 309 2.0 8.0 0.00 0.00 0.00 71 1008.1
20260902060132 86 272 3.0 5.0 0.00 0.00 0.00 71 1008.2
20260902055132 86 246 2.0 6.0 0.00 0.00 0.00 71 1008.4
20260902054133 86 152 4.0 6.0 0.00 0.00 0.00 71 1008.5
20260902053617 86 228 3.0 5.0 0.00 0.00 0.00 71 1008.8
20260902052630 86 306 3.0 6.0 0.00 0.00 0.00 71 1008.8
20260902051131 86 273 1.0 4.0 0.00 0.00 0.00 71 1008.9
20260902050131 85 242 1.0 6.0 0.00 0.00 0.00 71 1009.2
20260902045132 85 214 2.0 6.0 0.00 0.00 0.00 71 1009.3
20260902044133 85 243 3.0 6.0 0.00 0.00 0.00 72 1009.3
20260902043132 85 295 2.0 7.0 0.00 0.00 0.00 72 1009.4
20260902042133 85 272 2.0 6.0 0.00 0.00 0.00 72 1009.5
20260902041131 85 326 0.0 7.0 0.00 0.00 0.00 72 1009.6
20260902040614 85 242 2.0 6.0 0.00 0.00 0.00 72 1009.7
20260902035132 85 272 2.0 4.0 0.00 0.00 0.00 73 1009.6
20260902034132 85 242 1.0 4.0 0.00 0.00 0.00 74 1009.7
20260902033132 84 213 2.0 5.0 0.00 0.00 0.00 74 1009.7
20260902032131 84 240 2.0 6.0 0.00 0.00 0.00 74 1009.8
20260902031131 84 255 2.0 6.0 0.00 0.00 0.00 74 1009.7
20260902030131 84 338 2.0 5.0 0.00 0.00 0.00 75 1009.7
20260902025131 84 206 2.0 5.0 0.00 0.00 0.00 75 1009.7
20260902024131 84 229 3.0 4.0 0.00 0.00 0.00 75 1009.7
20260902024052 84 342 2.0 3.0 0.00 0.00 0.00 75 1009.7
20260902022131 84 255 3.0 5.0 0.00 0.00 0.00 76 1009.9
20260902021133 84 241 1.0 4.0 0.00 0.00 0.00 77 1009.8
20260902020131 83 10 1.0 4.0 0.00 0.00 0.00 77 1009.7
20260902015131 83 241 1.0 4.0 0.00 0.00 0.00 77 1009.7
20260902014134 83 235 1.0 3.0 0.00 0.00 0.00 78 1009.7
20260902013604 83 235 1.0 2.0 0.00 0.00 0.00 77 1009.7
20260902012131 83 145 0.0 3.0 0.00 0.00 0.00 78 1009.7
20260902011616 83 319 0.0 3.0 0.00 0.00 0.00 78 1009.6
20260902010132 83 204 0.0 2.0 0.00 0.00 0.00 78 1009.6
20260902005132 83 255 0.0 2.0 0.00 0.00 0.00 78 1009.6
20260902004131 83 160 0.0 2.0 0.00 0.00 0.00 78 1009.3
20260902003623 83 224 0.0 3.0 0.00 0.00 0.00 78 1009.3
20260902002132 83 34 0.0 2.0 0.00 0.00 0.00 79 1009.0
20260902001132 83 135 0.0 2.0 0.00 0.00 0.00 79 1008.9
20260902000130 83 284 0.0 2.0 0.00 0.00 0.00 79 1008.9
20260901235131 82 261 1.0 2.0 0.00 0.00 0.00 80 1009.0
20260901234130 82 242 0.0 3.0 0.00 0.00 0.00 79 1009.0
20260901233129 82 269 0.0 2.0 0.00 0.00 0.00 80 1009.1
20260901232129 82 255 0.0 2.0 0.00 0.00 0.00 80 1008.9
20260901231128 82 262 0.0 2.0 0.00 0.00 0.00 80 1008.9
20260901230258 82 269 0.0 2.0 0.00 0.00 0.00 80 1008.8
20260901225255 82 264 1.0 2.0 0.00 0.00 0.00 80 1008.8
20260901224250 83 253 0.0 2.0 0.00 0.00 0.00 80 1008.8
20260901223759 83 251 0.0 1.0 0.00 0.00 0.00 81 1008.8
20260901222244 83 269 0.0 1.0 0.00 0.00 0.00 80 1008.7
20260901221238 83 135 0.0 1.0 0.00 0.00 0.00 81 1008.7
20260901220233 83 243 0.0 1.0 0.00 0.00 0.00 81 1008.6
20260901215234 83 232 0.0 1.0 0.00 0.00 0.00 81 1008.7
20260901214226 83 89 0.0 1.0 0.00 0.00 0.00 81 1008.6
20260901213221 83 242 0.0 0.0 0.00 0.00 0.00 81 1008.5
20260901212221 83 62 0.0 1.0 0.00 0.00 0.00 81 1008.3
20260901211724 83 241 0.0 1.0 0.00 0.00 0.00 81 1008.3
20260901210210 83 42 0.0 1.0 0.00 0.00 0.00 81 1008.4
20260901205210 83 224 0.0 0.0 0.00 0.00 0.00 81 1008.5